Weather History for Chambery, France

Change the Weather History Date:

Sunday, January 6, 2013

  Actual Average Record
Temperature  
Mean Temperature 38 °F -  
Max Temperature 46 °F 41 °F 48 °F (2001)
Min Temperature 30 °F 29 °F 21 °F (2003)
Degree Days  
Heating Degree Days 27    
Moisture  
Dew Point 36 °F    
Average Humidity 80    
Maximum Humidity 100    
Minimum Humidity 66    
Precipitation  
Precipitation 0.00 in - - ()
Sea Level Pressure  
Sea Level Pressure 30.45 in    
Wind  
Wind Speed 4 mph ()    
Max Wind Speed 9 mph    
Max Gust Speed -    
Visibility 5.6 miles    
Events Fog    
Averages and records for this station are not official NWS values.
T = Trace of Precipitation, MM = Missing Value Source: Averaged Metar Reports

Daily Weather History Graph

Daily Weather History Graph

Search for Another Location

Airport:

Trip Planner

Search our weather history database for the weather conditions in past years. The results will help you decide how hot, cold, wet, or windy it might be!

Date:

Astronomy

Jan. 06, 2013 Rise Set
Actual Time 8:16 AM CET 5:08 PM CET
Civil Twilight 7:42 AM CET 5:42 PM CET
Nautical Twilight 7:05 AM CET 6:19 PM CET
Astronomical Twilight 6:29 AM CET 6:55 PM CET
Moon 2:05 AM CET (1/6) 12:31 PM CET (1/6)
Length of Visible Light 9h 59m
Length of Day
8h 51m
Waning Crescent, 36% of the Moon is Illuminated
Jan 6
Waning Crescent
Jan 11
New
Jan 19
First Quarter
Jan 27
Full
Feb 3
Last Quarter

Hourly Weather History & Observations

Time (CET) Temp. Windchill Dew Point Humidity Pressure Visibility Wind Dir Wind Speed Gust Speed Precip Events Conditions
12:00 AM 44.6 °F 41.4 °F 41.0 °F 87% 30.48 in 6.2 mi NW 5.8 mph - N/A   Overcast
12:30 AM 44.6 °F 42.2 °F 41.0 °F 87% 30.48 in 6.2 mi NW 4.6 mph - N/A   Overcast
1:00 AM 44.6 °F 43.1 °F 41.0 °F 87% 30.48 in 6.2 mi NW 3.5 mph - N/A   Overcast
1:30 AM 44.6 °F 40.7 °F 39.2 °F 81% 30.48 in 6.2 mi NNW 6.9 mph - N/A   Overcast
2:00 AM 44.6 °F 41.4 °F 39.2 °F 81% 30.48 in 6.2 mi NNW 5.8 mph - N/A   Overcast
2:30 AM 44.6 °F 41.4 °F 37.4 °F 76% 30.48 in 6.2 mi NNW 5.8 mph - N/A   Overcast
3:00 AM 44.6 °F 40.7 °F 37.4 °F 76% 30.48 in 6.2 mi North 6.9 mph - N/A   Overcast
3:30 AM 44.6 °F 40.7 °F 37.4 °F 76% 30.48 in 6.2 mi North 6.9 mph - N/A   Overcast
4:00 AM 44.6 °F 40.2 °F 37.4 °F 76% 30.48 in 6.2 mi North 8.1 mph - N/A   Overcast
4:30 AM 44.6 °F 39.7 °F 37.4 °F 76% 30.48 in 6.2 mi North 9.2 mph - N/A   Overcast
5:00 AM 44.6 °F 40.7 °F 37.4 °F 76% 30.48 in 6.2 mi North 6.9 mph - N/A   Overcast
5:30 AM 44.6 °F 40.2 °F 37.4 °F 76% 30.48 in 6.2 mi North 8.1 mph - N/A   Overcast
6:00 AM 44.6 °F 40.7 °F 37.4 °F 76% 30.48 in 6.2 mi North 6.9 mph - N/A   Overcast
6:30 AM 44.6 °F 41.4 °F 37.4 °F 76% 30.48 in 6.2 mi North 5.8 mph - N/A   Overcast
7:00 AM 44.6 °F 41.4 °F 37.4 °F 76% 30.48 in 6.2 mi North 5.8 mph - N/A   Overcast
7:30 AM 44.6 °F - 37.4 °F 76% 30.48 in 6.2 mi Variable 2.3 mph - N/A   Overcast
8:00 AM 44.6 °F 40.2 °F 37.4 °F 76% 30.48 in 6.2 mi NNW 8.1 mph - N/A   Mostly Cloudy
8:30 AM 44.6 °F 42.2 °F 37.4 °F 76% 30.48 in 6.2 mi NNW 4.6 mph - N/A   Overcast
9:00 AM 44.6 °F 41.4 °F 37.4 °F 76% 30.48 in 6.2 mi North 5.8 mph - N/A   Overcast
9:30 AM 44.6 °F 41.4 °F 37.4 °F 76% 30.48 in 6.2 mi North 5.8 mph - N/A   Mostly Cloudy
10:00 AM 44.6 °F 42.2 °F 37.4 °F 76% 30.48 in 6.2 mi NNW 4.6 mph - N/A   Mostly Cloudy
10:30 AM 44.6 °F - 37.4 °F 76% 30.48 in 6.2 mi Variable 2.3 mph - N/A   Mostly Cloudy
11:00 AM 44.6 °F - 37.4 °F 76% 30.48 in 6.2 mi Variable 2.3 mph - N/A   Mostly Cloudy
11:30 AM 46.4 °F 42.9 °F 35.6 °F 66% 30.48 in 6.2 mi North 6.9 mph - N/A   Mostly Cloudy
12:00 PM 46.4 °F 43.5 °F 37.4 °F 71% 30.48 in 6.2 mi North 5.8 mph - N/A   Overcast
12:30 PM 46.4 °F 43.5 °F 35.6 °F 66% 30.48 in 6.2 mi NNE 5.8 mph - N/A   Overcast
1:00 PM 46.4 °F 45.2 °F 35.6 °F 66% 30.45 in 6.2 mi Variable 3.5 mph - N/A   Mostly Cloudy
1:30 PM 46.4 °F 45.2 °F 35.6 °F 66% 30.45 in 6.2 mi Variable 3.5 mph - N/A   Mostly Cloudy
2:00 PM 46.4 °F 45.2 °F 37.4 °F 71% 30.45 in 6.2 mi NNE 3.5 mph - N/A   Mostly Cloudy
2:30 PM 46.4 °F 44.3 °F 35.6 °F 66% 30.42 in 6.2 mi NNW 4.6 mph - N/A   Scattered Clouds
3:00 PM 46.4 °F 44.3 °F 35.6 °F 66% 30.42 in 6.2 mi NNW 4.6 mph - N/A   Partly Cloudy
3:30 PM 46.4 °F 45.2 °F 37.4 °F 71% 30.42 in 6.2 mi NNW 3.5 mph - N/A   Partly Cloudy
4:00 PM 46.4 °F 45.2 °F 37.4 °F 71% 30.42 in 6.2 mi Variable 3.5 mph - N/A   Partly Cloudy
4:30 PM 44.6 °F 43.1 °F 37.4 °F 76% 30.42 in 6.2 mi NW 3.5 mph - N/A   Scattered Clouds
5:00 PM 42.8 °F - 37.4 °F 81% 30.42 in 6.2 mi Variable 2.3 mph - N/A   Scattered Clouds
5:30 PM 41.0 °F - 35.6 °F 81% 30.42 in 6.2 mi Variable 2.3 mph - N/A   Scattered Clouds
6:00 PM 37.4 °F 34.9 °F 33.8 °F 87% 30.42 in 6.2 mi South 3.5 mph - N/A   Scattered Clouds
6:30 PM 37.4 °F - 35.6 °F 93% 30.42 in 4.3 mi Calm Calm - N/A   Partly Cloudy
7:00 PM 35.6 °F - 33.8 °F 93% 30.42 in 3.7 mi SSW 1.2 mph - N/A   Scattered Clouds
7:30 PM 35.6 °F - 33.8 °F 93% 30.42 in 1.6 mi Calm Calm - N/A Fog Patches of Fog
8:00 PM 35.6 °F - 33.8 °F 93% 30.42 in 3.7 mi Calm Calm - N/A   Unknown
8:30 PM 33.8 °F - 32.0 °F 93% 30.42 in 0.2 mi Calm Calm - N/A Fog Fog
9:00 PM 32.0 °F - 32.0 °F 100% 30.42 in - Calm Calm - N/A   Mist
9:30 PM 33.8 °F - 32.0 °F 93% 30.42 in 1.1 mi Calm Calm - N/A   Mist
10:00 PM 30.2 °F 26.7 °F 28.4 °F 93% 30.39 in - SSE 3.5 mph - N/A   Mist
10:30 PM 32.0 °F - 30.2 °F 93% 30.39 in - SE 1.2 mph - N/A   Partly Cloudy
11:00 PM 32.0 °F - 32.0 °F 100% 30.39 in 1.4 mi Variable 1.2 mph - N/A   Overcast
11:30 PM 33.8 °F - 32.0 °F 93% 30.39 in - Calm Calm - N/A   Overcast